Hourly Weather Veliko Tarnovo

Today, 24 January, Sunday

Time Temperature Precipitation Wind Pressure Humidity
00:00 +8°C° 0 mm 7 mps 729 mmHg 80%
01:00 +8°C° 0 mm 5 mps 729 mmHg 82%
02:00 +7°C° 0 mm 4 mps 729 mmHg 85%
03:00 +8°C° 0.2 mm 3 mps 729 mmHg 85%
04:00 +7°C° 0.2 mm 2 mps 729 mmHg 86%
05:00 +8°C° 0.2 mm 1 mps 729 mmHg 87%
06:00 +7°C° 0 mm 1 mps 729 mmHg 86%
07:00 +7°C° 0 mm 1 mps 729 mmHg 86%
08:00 +6°C° 0 mm 2 mps 730 mmHg 86%
09:00 +7°C° 0 mm 2 mps 730 mmHg 80%
10:00 +9°C° 0 mm 2 mps 730 mmHg 74%
11:00 +10°C° 0 mm 2 mps 730 mmHg 69%
12:00 +11°C° 0 mm 3 mps 730 mmHg 63%
13:00 +12°C° 0 mm 3 mps 730 mmHg 58%
14:00 +13°C° 0 mm 4 mps 729 mmHg 52%
15:00 +12°C° 0 mm 3 mps 729 mmHg 56%
16:00 +11°C° 0 mm 3 mps 729 mmHg 60%
17:00 +10°C° 0 mm 2 mps 730 mmHg 64%
18:00 +9°C° 0 mm 2 mps 730 mmHg 68%
19:00 +8°C° 0 mm 2 mps 730 mmHg 71%
20:00 +8°C° 0 mm 1 mps 730 mmHg 74%
21:00 +7°C° 0 mm 2 mps 730 mmHg 76%
22:00 +7°C° 0 mm 2 mps 729 mmHg 79%
23:00 +6°C° 0 mm 2 mps 729 mmHg 81%

Tomorrow, 25 January, Monday

Time Temperature Precipitation Wind Pressure Humidity
00:00 +7°C° 0 mm 3 mps 728 mmHg 82%
01:00 +6°C° 0 mm 4 mps 728 mmHg 83%
02:00 +6°C° 0 mm 4 mps 727 mmHg 84%
03:00 +7°C° 0 mm 5 mps 726 mmHg 82%
04:00 +7°C° 0 mm 5 mps 725 mmHg 81%
05:00 +8°C° 0 mm 6 mps 724 mmHg 79%
06:00 +8°C° 0 mm 6 mps 724 mmHg 80%
07:00 +8°C° 0 mm 6 mps 723 mmHg 81%
08:00 +8°C° 0 mm 6 mps 722 mmHg 81%
09:00 +9°C° 0 mm 5 mps 722 mmHg 76%
10:00 +10°C° 0 mm 5 mps 722 mmHg 71%
11:00 +12°C° 0 mm 5 mps 722 mmHg 65%
12:00 +10°C° 0.3 mm 6 mps 723 mmHg 62%
13:00 +10°C° 0.3 mm 7 mps 723 mmHg 59%
14:00 +9°C° 0.3 mm 7 mps 724 mmHg 56%
15:00 +8°C° 0.1 mm 6 mps 724 mmHg 60%
16:00 +6°C° 0.1 mm 4 mps 725 mmHg 64%
17:00 +5°C° 0.1 mm 3 mps 726 mmHg 68%
18:00 +5°C° 0 mm 2 mps 727 mmHg 70%
19:00 +4°C° 0 mm 2 mps 727 mmHg 73%
20:00 +4°C° 0 mm 2 mps 728 mmHg 75%
21:00 +2°C° 0 mm 3 mps 728 mmHg 74%
22:00 +2°C° 0 mm 3 mps 729 mmHg 73%
23:00 +2°C° 0 mm 3 mps 730 mmHg 72%

Day after tomorrow, 26 January, Tuesday

Time Temperature Precipitation Wind Pressure Humidity
00:00 +1°C° 0 mm 3 mps 730 mmHg 73%
01:00 +1°C° 0 mm 3 mps 730 mmHg 73%
02:00 +1°C° 0 mm 3 mps 731 mmHg 73%
03:00 -1°C° 0 mm 4 mps 731 mmHg 72%
04:00 -1°C° 0 mm 4 mps 732 mmHg 72%
05:00 -1°C° 0 mm 5 mps 732 mmHg 71%
06:00 -1°C° 0 mm 4 mps 733 mmHg 71%
07:00 -1°C° 0 mm 3 mps 734 mmHg 71%
08:00 -1°C° 0 mm 3 mps 735 mmHg 71%
09:00 -1°C° 0 mm 4 mps 735 mmHg 62%
10:00 0°C° 0 mm 5 mps 736 mmHg 54%
11:00 +2°C° 0 mm 6 mps 736 mmHg 45%
12:00 +2°C° 0 mm 6 mps 736 mmHg 43%
13:00 +2°C° 0 mm 6 mps 736 mmHg 41%
14:00 +3°C° 0 mm 6 mps 736 mmHg 39%
15:00 +2°C° 0 mm 5 mps 736 mmHg 43%
16:00 +1°C° 0 mm 4 mps 737 mmHg 47%
17:00 +2°C° 0 mm 3 mps 737 mmHg 51%
18:00 +2°C° 0 mm 2 mps 737 mmHg 54%
19:00 +1°C° 0 mm 2 mps 737 mmHg 57%
20:00 +1°C° 0 mm 2 mps 738 mmHg 60%
21:00 +1°C° 0 mm 1 mps 738 mmHg 60%
22:00 +1°C° 0 mm 1 mps 738 mmHg 61%
23:00 +1°C° 0 mm 1 mps 738 mmHg 61%

27 January, Wednesday

Time Temperature Precipitation Wind Pressure Humidity
00:00 +1°C° 0 mm 1 mps 738 mmHg 60%
01:00 +1°C° 0 mm 1 mps 738 mmHg 59%
02:00 +1°C° 0 mm 1 mps 738 mmHg 59%
03:00 +1°C° 0 mm 1 mps 738 mmHg 58%
04:00 +1°C° 0 mm 1 mps 737 mmHg 57%
05:00 +1°C° 0 mm 1 mps 737 mmHg 56%
06:00 +1°C° 0 mm 1 mps 737 mmHg 55%
07:00 0°C° 0 mm 0 mps 737 mmHg 55%
08:00 0°C° 0 mm 0 mps 737 mmHg 54%
09:00 +2°C° 0 mm 1 mps 737 mmHg 51%
10:00 +2°C° 0 mm 2 mps 737 mmHg 48%
11:00 +2°C° 0 mm 3 mps 737 mmHg 44%
12:00 +3°C° 0 mm 4 mps 737 mmHg 48%
13:00 +3°C° 0 mm 4 mps 736 mmHg 52%
14:00 +3°C° 0 mm 4 mps 736 mmHg 56%
15:00 +1°C° 0 mm 4 mps 736 mmHg 59%
16:00 +1°C° 0 mm 3 mps 736 mmHg 63%
17:00 +1°C° 0 mm 3 mps 736 mmHg 66%
18:00 +1°C° 0 mm 2 mps 736 mmHg 69%
19:00 -1°C° 0 mm 2 mps 736 mmHg 71%
20:00 -2°C° 0 mm 2 mps 737 mmHg 73%
21:00 -2°C° 0 mm 2 mps 737 mmHg 73%
22:00 -2°C° 0 mm 2 mps 737 mmHg 73%
23:00 -2°C° 0 mm 2 mps 737 mmHg 72%

28 January, Thursday

Time Temperature Precipitation Wind Pressure Humidity
00:00 -2°C° 0 mm 2 mps 737 mmHg 72%
01:00 -2°C° 0 mm 2 mps 737 mmHg 72%
02:00 -2°C° 0 mm 2 mps 737 mmHg 72%
03:00 0°C° 0 mm 1 mps 737 mmHg 72%
04:00 0°C° 0 mm 1 mps 737 mmHg 71%
05:00 0°C° 0 mm 1 mps 737 mmHg 71%
06:00 0°C° 0 mm 1 mps 737 mmHg 68%
07:00 0°C° 0 mm 1 mps 737 mmHg 66%
08:00 0°C° 0 mm 1 mps 737 mmHg 63%
09:00 -1°C° 0 mm 2 mps 737 mmHg 62%
10:00 +1°C° 0 mm 2 mps 737 mmHg 60%
11:00 +1°C° 0 mm 3 mps 737 mmHg 58%
12:00 +2°C° 0.2 mm 2 mps 737 mmHg 69%
13:00 +1°C° 0.2 mm 2 mps 736 mmHg 80%
14:00 +2°C° 0.2 mm 1 mps 736 mmHg 91%
15:00 +1°C° 1 mm 2 mps 736 mmHg 93%
16:00 +1°C° 1 mm 2 mps 736 mmHg 95%
17:00 +1°C° 1 mm 2 mps 736 mmHg 97%
18:00 +1°C° 0.3 mm 2 mps 736 mmHg 97%
19:00 +1°C° 0.3 mm 2 mps 736 mmHg 97%
20:00 +1°C° 0.3 mm 2 mps 736 mmHg 97%

29 January, Friday

Time Temperature Precipitation Wind Pressure Humidity
Show more